Oscoda, MI

8:48 PM EDT on September 21, 2019 (GMT -0400)
Oscoda-Wurtsmith

Weather History for KOSC - August, 2019

Change the Weather History Date:

Monday, August 19, 2019

  Actual Average Record
Temperature  
Mean Temperature 70 °F -  
Max Temperature 80 °F 74 °F 86 °F (2003)
Min Temperature 59 °F 55 °F 42 °F (1998)
Cooling Degree Days 4    
Growing Degree Days 20 (Base 50)    
Moisture  
Dew Point 58 °F    
Average Humidity 69    
Maximum Humidity 100    
Minimum Humidity 38    
Precipitation  
Precipitation 0.00 in - - ()
Sea Level Pressure  
Sea Level Pressure 29.98 in    
Wind  
Wind Speed 5 mph (SW)    
Max Wind Speed 13 mph    
Max Gust Speed 18 mph    
Visibility 10 miles    
Events      
Averages and records for this station are not official NWS values.
T = Trace of Precipitation, MM = Missing Value Source: NWS Daily Summary

Daily Weather History Graph

Daily Weather History Graph

Search for Another Location

Airport or City:

Astronomy

Aug. 19, 2019 Rise Set
Actual Time 6:40 AM EDT 8:32 PM EDT
Civil Twilight 6:09 AM EDT 9:03 PM EDT
Nautical Twilight 5:31 AM EDT 9:41 PM EDT
Astronomical Twilight 4:49 AM EDT 10:22 PM EDT
Moon 10:44 PM EDT (8/19) 10:28 AM EDT (8/19)
Length of Visible Light 14h 54m
Length of Day
13h 51m
Waning Gibbous, 85% of the Moon is Illuminated
Aug 19
Waning Gibbous
Aug 23
Last Quarter
Aug 30
New
Sep 5
First Quarter
Sep 14
Full

Hourly Weather History & Observations

Time (EDT) Temp. Heat Index Dew Point Humidity Pressure Visibility Wind Dir Wind Speed Gust Speed Precip Events Conditions
12:15 AM 67.5 °F - 63.5 °F 87% 29.82 in 10.0 mi West 6.9 mph - N/A   Clear
12:16 AM 67.6 °F - 63.7 °F 87% 29.82 in 10.0 mi West 5.8 mph - N/A   Clear
12:35 AM 69.3 °F - 64.0 °F 83% 29.83 in 10.0 mi West 6.9 mph - N/A   Clear
12:59 AM 69.3 °F - 63.5 °F 82% 29.83 in 10.0 mi West 8.1 mph - N/A   Clear
1:17 AM 68.9 °F - 63.3 °F 82% 29.83 in 10.0 mi West 8.1 mph - N/A   Clear
1:35 AM 67.5 °F - 62.8 °F 85% 29.84 in 10.0 mi WSW 6.9 mph - N/A   Clear
1:36 AM 67.3 °F - 62.8 °F 85% 29.84 in 10.0 mi WSW 6.9 mph - N/A   Clear
1:55 AM 66.4 °F - 63.1 °F 89% 29.85 in 10.0 mi WSW 4.6 mph - N/A   Clear
2:15 AM 65.5 °F - 64.8 °F 98% 29.85 in 10.0 mi WSW 6.9 mph - N/A   Clear
2:38 AM 64.0 °F - 63.7 °F 99% 29.86 in 10.0 mi West 5.8 mph - N/A   Clear
2:56 AM 63.3 °F - 63.3 °F 100% 29.86 in 10.0 mi WSW 5.8 mph - N/A   Clear
3:15 AM 63.9 °F - 63.9 °F 100% 29.87 in 10.0 mi WSW 6.9 mph - N/A   Clear
3:35 AM 64.4 °F - 64.4 °F 100% 29.88 in 10.0 mi West 4.6 mph - N/A   Clear
3:59 AM 64.8 °F - 64.4 °F 99% 29.89 in 10.0 mi WNW 5.8 mph - N/A   Clear
4:17 AM 65.8 °F - 64.6 °F 96% 29.90 in 10.0 mi NW 5.8 mph - N/A   Clear
4:35 AM 65.3 °F - 64.4 °F 97% 29.91 in 10.0 mi NNW 4.6 mph - N/A   Clear
4:55 AM 65.3 °F - 62.1 °F 89% 29.92 in 10.0 mi NNW 6.9 mph - N/A   Clear
5:15 AM 64.2 °F - 59.2 °F 84% 29.92 in 10.0 mi NNW 4.6 mph - N/A   Clear
5:20 AM 63.9 °F - 59.0 °F 84% 29.92 in 10.0 mi NNW 4.6 mph - N/A   Clear
5:38 AM 62.1 °F - 59.2 °F 90% 29.93 in 10.0 mi NW 4.6 mph - N/A   Clear
5:56 AM 61.2 °F - 60.8 °F 99% 29.94 in 10.0 mi NW 5.8 mph - N/A   Scattered Clouds
6:15 AM 60.4 °F - 60.4 °F 100% 29.94 in 10.0 mi NNW 4.6 mph - N/A   Scattered Clouds
6:16 AM 60.4 °F - 60.4 °F 100% 29.94 in 10.0 mi NNW 4.6 mph - N/A   Scattered Clouds
6:35 AM 61.0 °F - 60.3 °F 97% 29.95 in 10.0 mi NW 3.5 mph - N/A   Clear
6:36 AM 61.0 °F - 60.4 °F 98% 29.95 in 10.0 mi Calm Calm - N/A   Clear
6:59 AM 60.4 °F - 58.3 °F 93% 29.96 in 10.0 mi Calm Calm - N/A   Clear
7:17 AM 59.5 °F - 59.2 °F 99% 29.97 in 10.0 mi Calm Calm - N/A   Clear
7:35 AM 60.1 °F - 59.4 °F 97% 29.97 in 10.0 mi Calm Calm - N/A   Clear
7:36 AM 60.1 °F - 59.4 °F 97% 29.97 in 10.0 mi Calm Calm - N/A   Clear
7:55 AM 62.2 °F - 59.9 °F 92% 29.98 in 10.0 mi Calm Calm - N/A   Clear
7:56 AM 62.4 °F - 60.1 °F 92% 29.98 in 10.0 mi Calm Calm - N/A   Clear
8:15 AM 64.8 °F - 58.8 °F 81% 29.99 in 10.0 mi Calm Calm - N/A   Clear
8:20 AM 65.3 °F - 58.6 °F 79% 29.99 in 10.0 mi WNW 3.5 mph - N/A   Clear
8:38 AM 66.6 °F - 57.6 °F 73% 29.99 in 10.0 mi Calm Calm - N/A   Clear
8:56 AM 68.7 °F - 56.7 °F 65% 30.00 in 10.0 mi NW 4.6 mph - N/A   Clear
9:15 AM 70.5 °F - 56.3 °F 61% 30.00 in 10.0 mi Calm Calm - N/A   Clear
9:16 AM 70.7 °F - 56.5 °F 61% 30.00 in 10.0 mi NW 3.5 mph - N/A   Clear
9:35 AM 72.0 °F - 54.7 °F 54% 30.01 in 10.0 mi NW 4.6 mph - N/A   Clear
9:36 AM 72.0 °F - 54.3 °F 54% 30.01 in 10.0 mi WNW 4.6 mph - N/A   Clear
9:59 AM 73.4 °F - 53.2 °F 49% 30.01 in 10.0 mi North 4.6 mph - N/A   Clear
10:17 AM 74.3 °F - 51.1 °F 44% 30.01 in 10.0 mi Calm Calm - N/A   Clear
10:35 AM 74.3 °F - 51.3 °F 44% 30.01 in 10.0 mi NNW 4.6 mph - N/A   Clear
10:36 AM 74.5 °F - 51.8 °F 45% 30.01 in 10.0 mi North 3.5 mph - N/A   Clear
10:55 AM 75.4 °F - 52.2 °F 44% 30.02 in 10.0 mi Calm Calm - N/A   Clear
10:56 AM 75.4 °F - 52.0 °F 44% 30.02 in 10.0 mi Calm Calm - N/A   Clear
11:15 AM 77.0 °F - 50.5 °F 39% 30.03 in 10.0 mi NW 3.5 mph - N/A   Clear
11:38 AM 77.5 °F - 50.4 °F 38% 30.03 in 10.0 mi SW 4.6 mph - N/A   Clear
11:55 AM 77.5 °F - 50.4 °F 38% 30.03 in 10.0 mi Calm Calm - N/A   Clear
12:15 PM 78.1 °F - 51.3 °F 39% 30.03 in 10.0 mi Calm Calm - N/A   Clear
12:35 PM 77.4 °F - 55.6 °F 47% 30.03 in 10.0 mi Calm Calm - N/A   Scattered Clouds
12:59 PM 78.8 °F - 54.1 °F 42% 30.03 in 10.0 mi Calm Calm - N/A   Scattered Clouds
1:17 PM 77.7 °F - 55.2 °F 46% 30.03 in 10.0 mi SSE 6.9 mph - N/A   Scattered Clouds
1:35 PM 78.1 °F - 55.8 °F 46% 30.03 in 10.0 mi ESE 8.1 mph - N/A   Mostly Cloudy
1:55 PM 79.3 °F - 54.9 °F 43% 30.03 in 10.0 mi SE 12.7 mph 18.4 mph N/A   Mostly Cloudy
2:15 PM 79.0 °F - 55.6 °F 44% 30.03 in 10.0 mi SE 6.9 mph 17.3 mph N/A   Scattered Clouds
2:20 PM 79.3 °F - 55.0 °F 43% 30.03 in 10.0 mi SSE 10.4 mph 16.1 mph N/A   Scattered Clouds
2:38 PM 79.0 °F - 55.2 °F 44% 30.03 in 10.0 mi ESE 11.5 mph 17.3 mph N/A   Mostly Cloudy
2:56 PM 79.2 °F - 55.0 °F 43% 30.03 in 10.0 mi SSE 11.5 mph - N/A   Mostly Cloudy
3:15 PM 79.0 °F - 53.2 °F 41% 30.03 in 10.0 mi SSE 11.5 mph 16.1 mph N/A   Scattered Clouds
3:35 PM 79.2 °F - 53.6 °F 41% 30.02 in 10.0 mi SSE 9.2 mph - N/A   Clear
3:59 PM 79.7 °F - 54.1 °F 41% 30.01 in 10.0 mi SSW 11.5 mph - N/A   Clear
4:17 PM 80.1 °F 80.1 °F 54.3 °F 41% 30.01 in 10.0 mi South 9.2 mph - N/A   Clear
4:36 PM 79.9 °F - 54.3 °F 41% 30.01 in 10.0 mi SSW 6.9 mph - N/A   Clear
4:55 PM 80.4 °F 80.3 °F 54.7 °F 41% 30.01 in 10.0 mi SSW 10.4 mph - N/A   Clear
5:15 PM 80.4 °F 80.5 °F 55.8 °F 43% 30.01 in 10.0 mi SSW 8.1 mph - N/A   Clear
5:20 PM 80.6 °F 80.5 °F 55.8 °F 42% 30.01 in 10.0 mi South 8.1 mph - N/A   Clear
5:38 PM 79.9 °F - 56.3 °F 44% 30.01 in 10.0 mi SSE 12.7 mph - N/A   Clear
5:56 PM 79.0 °F - 55.4 °F 44% 30.01 in 10.0 mi South 12.7 mph - N/A   Clear
6:15 PM 78.6 °F - 54.9 °F 44% 30.01 in 10.0 mi South 10.4 mph - N/A   Clear
6:35 PM 78.1 °F - 54.7 °F 44% 30.01 in 10.0 mi South 8.1 mph - N/A   Clear
6:36 PM 78.1 °F - 54.7 °F 44% 30.01 in 10.0 mi South 8.1 mph - N/A   Clear
6:59 PM 77.5 °F - 54.5 °F 45% 30.01 in 10.0 mi South 9.2 mph - N/A   Clear
7:17 PM 77.5 °F - 55.2 °F 46% 30.01 in 10.0 mi SSW 5.8 mph - N/A   Clear
7:35 PM 76.3 °F - 55.4 °F 48% 30.01 in 10.0 mi South 5.8 mph - N/A   Clear
7:55 PM 75.7 °F - 55.4 °F 49% 30.01 in 10.0 mi South 4.6 mph - N/A   Clear
7:56 PM 75.7 °F - 55.4 °F 49% 30.01 in 10.0 mi SSE 4.6 mph - N/A   Clear
8:15 PM 73.8 °F - 61.9 °F 66% 30.01 in 10.0 mi SE 5.8 mph - N/A   Clear
8:20 PM 73.4 °F - 61.9 °F 67% 30.01 in 10.0 mi SE 6.9 mph - N/A   Clear
8:38 PM 72.9 °F - 62.4 °F 70% 30.01 in 10.0 mi ESE 5.8 mph - N/A   Clear
8:56 PM 72.0 °F - 63.7 °F 75% 30.01 in 10.0 mi SE 5.8 mph - N/A   Clear
9:15 PM 71.4 °F - 63.7 °F 76% 30.01 in 10.0 mi SSE 5.8 mph - N/A   Clear
9:35 PM 70.7 °F - 63.5 °F 78% 30.01 in 10.0 mi SE 4.6 mph - N/A   Clear
9:59 PM 70.7 °F - 63.5 °F 78% 30.02 in 10.0 mi South 3.5 mph - N/A   Clear
10:17 PM 69.4 °F - 63.3 °F 81% 30.02 in 10.0 mi South 3.5 mph - N/A   Clear
10:35 PM 64.9 °F - 61.0 °F 87% 30.02 in 10.0 mi SSW 3.5 mph - N/A   Clear
10:55 PM 61.9 °F - 61.3 °F 98% 30.01 in 10.0 mi SSW 3.5 mph - N/A   Clear
11:15 PM 63.3 °F - 63.3 °F 100% 30.01 in 10.0 mi Calm Calm - N/A   Clear
11:20 PM 64.0 °F - 64.0 °F 100% 30.02 in 10.0 mi Calm Calm - N/A   Clear
11:38 PM 64.8 °F - 64.6 °F 99% 30.02 in 10.0 mi Calm Calm - N/A   Clear
11:56 PM 64.6 °F - 63.7 °F 97% 30.02 in 10.0 mi Calm Calm - N/A   Clear